This demonstration page uses our WeatherBlox Daily Observations layout. Learn more.

Left ArrowRight Arrow

Hourly Observations for July 14, 2018

Temp ( °F °C ) Dew Point ( °F °C ) Humidity (%) Winds ( mph kmh ) Pressure ( in mb ) Visibility ( mi km ) Precip ( " mm )
12:53 am 00:53 Clear 83 28.3 55 12.8 38 38 SE 12 19 29.92 1013 10 16 0.00 0.00
1:53 am 01:53 Clear 81 27.2 54 12.2 39 39 SE 7 11 29.92 1013 10 16 0.00 0.00
2:53 am 02:53 Partly Cloudy 78 25.6 55 12.8 45 45 ESE 6 9 29.91 1013 10 16 0.00 0.00
3:53 am 03:53 Clear 77 25 55 12.8 47 47 ESE 7 11 29.90 1013 10 16 0.00 0.00
4:53 am 04:53 Clear 76 24.4 56 13.3 50 50 SE 8 13 29.90 1013 10 16 0.00 0.00
5:53 am 05:53 Clear 75 23.9 56 13.3 52 52 ESE 9 15 29.91 1013 10 16 0.00 0.00
6:53 am 06:53 Clear 75 23.9 57 13.9 54 54 SE 13 20 29.92 1013 10 16 0.00 0.00
7:53 am 07:53 Sunny 74 23.3 59 15 60 60 SE 10 17 29.94 1014 10 16 0.00 0.00
8:53 am 08:53 Sunny 77 25 62 16.7 60 60 SE 15 24 29.95 1014 10 16 0.00 0.00
9:53 am 09:53 Mostly Sunny 82 27.8 61 16.1 49 49 SSE 16 26 29.96 1014 10 16 0.00 0.00
10:53 am 10:53 Mostly Cloudy 86 30 61 16.1 43 43 SSE 13 20 29.95 1014 10 16 0.00 0.00
11:53 am 11:53 Sunny 89 31.7 61 16.1 39 39 SE 9 15 29.94 1014 10 16 0.00 0.00
12:53 pm 12:53 Sunny 92 33.3 60 15.6 34 34 S 8 13 29.93 1013 10 16 0.00 0.00
1:53 pm 13:53 Sunny 94 34.4 58 14.4 30 30 VRB 7 11 29.90 1013 10 16 0.00 0.00
2:53 pm 14:53 Sunny 97 36.1 56 13.3 25 25 SSE 13 20 29.88 1012 10 16 0.00 0.00
3:53 pm 15:53 Sunny 96 35.6 53 11.7 23 23 VRB 7 11 29.85 1011 10 16 0.00 0.00
4:53 pm 16:53 Sunny 99 37.2 53 11.7 21 21 E 7 11 29.83 1010 10 16 0.00 0.00
5:53 pm 17:53 Sunny 98 36.7 52 11.1 21 21 E 9 15 29.82 1010 10 16 0.00 0.00
6:53 pm 18:53 Sunny 97 36.1 52 11.1 22 22 SE 12 19 29.81 1010 10 16 0.00 0.00
7:37 pm 19:37 Mostly Cloudy 91 32.8 59 15 34 34 W 16 26 29.74 1007 10 16 0.00 0.00
7:53 pm 19:53 Mostly Cloudy 92 33.3 60 15.6 34 34 WNW 15 24 29.84 1010 10 16 0.00 0.00
8:53 pm 20:53 Sunny 87 30.6 59 15 39 39 NW 10 17 29.85 1011 10 16 0.00 0.00
9:53 pm 21:53 Clear 83 28.3 59 15 44 44 NE 6 9 29.86 1011 10 16 0.00 0.00
10:53 pm 22:53 Clear 83 28.3 60 15.6 46 46 E 6 9 29.87 1012 10 16 0.00 0.00
11:53 pm 23:53 Clear 80 26.7 60 15.6 51 51 SSW 5 7 29.88 1012 10 16 0.00 0.00

Powered by AerisWeather